Regional Weather Roundup
Issued by NWS Charleston, WV

Home | Current Version | Previous Version | Graphics & Text | Print | Product List | Glossary On
Versions: 1 2 3 4 5 6 7 8 9 10 11 12 13 14 15 16 17 18 19 20 21 22 23 24 25 26 27 28 29 30 31 32 33 34 35 36 37 38 39 40 41 42 43 44 45 46 47 48 49 50
000
ASUS41 KRLX 061610
RWRRLX
West Virginia Regional Weather Roundup
National Weather Service Charleston WV
1100 AM EST FRI MAR 06 2015

Note: "fair" indicates few or no clouds below 12,000 feet with no
significant weather and/or obstructions to visibility.

WVZ003-061700-
Northern Panhandle of West Virginia

CITY           SKY/WX    TMP DP  RH WIND       PRES   REMARKS
WHEELING       SUNNY     15   5  64 VRB3      30.50F
$$

WVZ009-061700-
Northwest West Virginia

CITY           SKY/WX    TMP DP  RH WIND       PRES   REMARKS
PARKERSBURG      N/A     17   7  64 CALM      30.58F
$$

WVZ006-061700-
Western West Virginia

CITY           SKY/WX    TMP DP  RH WIND       PRES   REMARKS
HUNTINGTON     MOSUNNY   17  15  92 CALM      30.55F
$$

WVZ015-061700-
West Central West Virginia

CITY           SKY/WX    TMP DP  RH WIND       PRES   REMARKS
CHARLESTON     MOSUNNY   20  12  71 CALM      30.53S
$$

WVZ022-031-061700-
North Central West Virginia

CITY           SKY/WX    TMP DP  RH WIND       PRES   REMARKS
CLARKSBURG     SUNNY    N/A N/A N/A VRB3      30.51F
MORGANTOWN     SUNNY     17   4  56 CALM      30.51F
$$

WVZ025-035-042-045-061700-
Southern West Virginia

CITY           SKY/WX    TMP DP  RH WIND       PRES   REMARKS
BECKLEY        SUNNY     18   9  68 CALM      30.38F
LOGAN          PTSUNNY   18  12  79 NW3       30.44S
BLUEFIELD      SUNNY     21   9  59 VRB3      30.35F
LEWISBURG      FLURRIES  18  10  71 CALM      30.41F
$$

WVZ047-061700-
Northern Mountains of West Virginia

CITY           SKY/WX    TMP DP  RH WIND       PRES   REMARKS
ELKINS         SUNNY     15  11  83 CALM      30.43F
$$

WVZ052-061700-
Eastern Panhandle of West Virginia

CITY           SKY/WX    TMP DP  RH WIND       PRES   REMARKS
MARTINSBURG    SUNNY     18   0  45 NE3       30.58F
PETERSBURG     SUNNY     19   7  59 CALM      30.54F
$$


USA.gov is the U.S. government's official web portal to all federal, state and local government web resources and services.